Date,TemperatureHighF,TemperatureAvgF,TemperatureLowF,DewpointHighF,DewpointAvgF,DewpointLowF,HumidityHigh,HumidityAvg,HumidityLow,PressureMaxIn,PressureMinIn,WindSpeedMaxMPH,WindSpeedAvgMPH,GustSpeedMaxMPH,PrecipitationSumIn
2013-4-1,37.1,30.4,24.8,30.5,18.0,13.3,85,60,48,30.10,29.74,26,5,27,0.01
2013-4-2,38.7,30.6,18.8,22.4,16.8,12.7,84,58,40,30.26,30.10,22,4,25,0.00
2013-4-3,46.5,32.5,20.7,21.4,17.7,13.8,83,57,31,30.45,30.25,15,2,17,0.00
2013-4-4,53.1,40.5,24.8,27.8,22.4,17.4,78,51,30,30.33,29.94,22,4,22,0.00
2013-4-5,50.6,41.2,31.5,28.5,24.1,17.5,73,52,27,30.18,29.94,17,3,22,0.00
2013-4-6,58.4,47.2,36.2,43.4,26.8,16.3,66,46,35,30.17,29.61,27,7,27,0.00
2013-4-7,56.4,45.3,34.1,48.4,36.8,28.6,86,72,57,29.99,29.52,29,6,35,0.11
2013-4-8,52.6,41.9,35.5,50.5,37.8,30.9,93,85,76,29.98,29.62,27,6,29,0.48
2013-4-9,47.4,43.2,39.8,45.8,41.5,37.7,95,94,92,30.04,29.84,28,3,30,1.12
2013-4-10,42.5,40.8,38.2,40.9,38.0,32.3,94,90,80,30.00,29.75,28,7,28,0.34
2013-4-11,38.9,36.8,35.8,35.0,33.9,31.1,92,89,74,29.95,29.61,31,10,36,1.31
2013-4-12,41.6,37.5,34.2,37.5,34.7,32.1,93,90,78,29.74,29.53,21,5,23,0.23
2013-4-13,40.2,37.0,35.1,35.6,31.2,26.4,92,80,59,29.96,29.74,24,5,28,0.10
2013-4-14,49.8,39.0,28.8,41.5,33.3,24.3,90,80,67,30.07,29.80,22,4,26,0.10
2013-4-15,66.8,55.1,45.2,55.2,47.9,36.6,92,77,66,29.90,29.76,20,4,22,0.62
2013-4-16,52.9,47.0,41.2,45.3,37.9,32.9,92,72,50,30.23,29.88,19,3,19,0.26
2013-4-17,52.8,45.7,41.6,43.4,37.0,31.5,92,72,51,30.30,29.91,30,5,31,0.95
2013-4-18,62.4,54.6,44.5,60.5,52.6,42.3,96,93,84,29.95,29.36,21,4,23,1.77
2013-4-19,61.3,39.6,33.4,57.7,34.2,25.7,90,81,69,29.74,29.38,34,11,39,0.24
2013-4-20,38.7,33.3,27.9,27.5,21.5,18.3,79,62,47,30.43,29.74,29,5,29,0.03
2013-4-21,54.2,39.7,23.7,32.0,24.6,18.5,88,58,33,30.57,30.37,15,3,17,0.00
2013-4-22,67.2,52.2,36.5,36.7,31.5,27.5,75,49,25,30.38,30.08,12,3,14,0.00
2013-4-23,64.6,51.5,40.7,50.8,41.8,31.6,91,71,42,30.08,29.80,17,3,17,0.45
2013-4-24,46.4,39.3,34.4,38.3,30.7,25.0,91,73,45,30.07,29.83,23,4,23,0.13
2013-4-25,49.7,42.6,36.6,39.0,32.7,27.8,90,69,47,30.30,29.99,26,4,27,0.25
2013-4-26,66.7,51.0,34.0,41.0,35.4,27.9,83,58,36,30.38,30.22,18,2,18,0.00
2013-4-27,72.9,59.4,41.9,48.3,41.0,35.1,86,54,29,30.26,30.01,15,2,16,0.00
2013-4-28,67.0,58.9,49.6,54.2,46.3,37.3,85,64,49,30.01,29.77,14,1,15,0.00
2013-4-29,72.7,60.6,44.7,57.4,51.3,41.7,93,73,52,29.88,29.77,17,1,17,0.00
2013-4-30,80.1,67.5,57.3,62.5,57.5,52.5,89,71,53,29.92,29.79,21,5,24,0.53